Year,Month,Day,Hour,Minute,Value (Times are PST for temperature in C)
2015,07,04,00,00,18.80
2015,07,04,00,01,18.80
2015,07,04,00,02,18.80
2015,07,04,00,03,18.80
2015,07,04,00,04,18.80
2015,07,04,00,05,18.70
2015,07,04,00,06,18.70
2015,07,04,00,07,18.70
2015,07,04,00,08,18.70
2015,07,04,00,09,18.70
2015,07,04,00,10,18.70
2015,07,04,00,11,18.70
2015,07,04,00,12,18.80
2015,07,04,00,13,18.80
2015,07,04,00,14,18.80
2015,07,04,00,15,18.80
2015,07,04,00,16,18.80
2015,07,04,00,17,18.80
2015,07,04,00,18,18.80
2015,07,04,00,19,18.80
2015,07,04,00,20,18.80
2015,07,04,00,21,18.80
2015,07,04,00,22,18.70
2015,07,04,00,23,18.70
2015,07,04,00,24,18.70
2015,07,04,00,25,18.70
2015,07,04,00,26,18.70
2015,07,04,00,27,18.70
2015,07,04,00,28,18.70
2015,07,04,00,29,18.70
2015,07,04,00,30,18.70
2015,07,04,00,31,18.60
2015,07,04,00,32,18.60
2015,07,04,00,33,18.60
2015,07,04,00,34,18.50
2015,07,04,00,35,18.40
2015,07,04,00,36,18.40
2015,07,04,00,37,18.30
2015,07,04,00,38,18.30
2015,07,04,00,39,18.30
2015,07,04,00,40,18.20
2015,07,04,00,41,18.20
2015,07,04,00,42,18.20
2015,07,04,00,43,18.20
2015,07,04,00,44,18.20
2015,07,04,00,45,18.30
2015,07,04,00,46,18.30
2015,07,04,00,47,18.30
2015,07,04,00,48,18.30
2015,07,04,00,49,18.20
2015,07,04,00,50,18.20
2015,07,04,00,51,18.20
2015,07,04,00,52,18.20
2015,07,04,00,53,18.20
2015,07,04,00,54,18.20
2015,07,04,00,55,18.20
2015,07,04,00,56,18.20
2015,07,04,00,57,18.20
2015,07,04,00,58,18.20
2015,07,04,00,59,18.20
2015,07,04,01,00,18.20
2015,07,04,01,01,18.20
2015,07,04,01,02,18.20
2015,07,04,01,03,18.20
2015,07,04,01,04,18.20
2015,07,04,01,05,18.20
2015,07,04,01,06,18.20
2015,07,04,01,07,18.20
2015,07,04,01,08,18.10
2015,07,04,01,09,18.10
2015,07,04,01,10,18.00
2015,07,04,01,11,18.00
2015,07,04,01,12,17.90
2015,07,04,01,13,17.90
2015,07,04,01,14,17.90
2015,07,04,01,15,17.90
2015,07,04,01,16,17.90
2015,07,04,01,17,17.90
2015,07,04,01,18,17.90
2015,07,04,01,19,17.90
2015,07,04,01,20,17.80
2015,07,04,01,21,17.80
2015,07,04,01,22,17.70
2015,07,04,01,23,17.70
2015,07,04,01,24,17.70
2015,07,04,01,25,17.60
2015,07,04,01,26,17.60
2015,07,04,01,27,17.50
2015,07,04,01,28,17.50
2015,07,04,01,29,17.50
2015,07,04,01,30,17.50
2015,07,04,01,31,17.40
2015,07,04,01,32,17.40
2015,07,04,01,33,17.40
2015,07,04,01,34,17.40
2015,07,04,01,35,17.40
2015,07,04,01,36,17.40
2015,07,04,01,37,17.40
2015,07,04,01,38,17.40
2015,07,04,01,39,17.40
2015,07,04,01,40,17.40
2015,07,04,01,41,17.40
2015,07,04,01,42,17.40
2015,07,04,01,43,17.40
2015,07,04,01,44,17.40
2015,07,04,01,45,17.40
2015,07,04,01,46,17.40
2015,07,04,01,47,17.40
2015,07,04,01,48,17.40
2015,07,04,01,49,17.40
2015,07,04,01,50,17.40
2015,07,04,01,51,17.40
2015,07,04,01,52,17.40
2015,07,04,01,53,17.50
2015,07,04,01,54,17.60
2015,07,04,01,55,17.60
2015,07,04,01,56,17.70
2015,07,04,01,57,17.70
2015,07,04,01,58,17.70
2015,07,04,01,59,17.70
2015,07,04,02,00,17.70
2015,07,04,02,01,17.70
2015,07,04,02,02,17.60
2015,07,04,02,03,17.60
2015,07,04,02,04,17.50
2015,07,04,02,05,17.50
2015,07,04,02,06,17.40
2015,07,04,02,07,17.40
2015,07,04,02,08,17.40
2015,07,04,02,09,17.40
2015,07,04,02,10,17.30
2015,07,04,02,11,17.30
2015,07,04,02,12,17.20
2015,07,04,02,13,17.20
2015,07,04,02,14,17.10
2015,07,04,02,15,17.10
2015,07,04,02,16,17.00
2015,07,04,02,17,17.00
2015,07,04,02,18,17.00
2015,07,04,02,19,17.10
2015,07,04,02,20,17.10
2015,07,04,02,21,17.10
2015,07,04,02,22,17.10
2015,07,04,02,23,17.10
2015,07,04,02,24,17.10
2015,07,04,02,25,17.10
2015,07,04,02,26,17.10
2015,07,04,02,27,17.10
2015,07,04,02,28,17.10
2015,07,04,02,29,17.10
2015,07,04,02,30,17.10
2015,07,04,02,31,17.10
2015,07,04,02,32,17.10
2015,07,04,02,33,17.00
2015,07,04,02,34,17.00
2015,07,04,02,35,17.00
2015,07,04,02,36,16.90
2015,07,04,02,37,16.90
2015,07,04,02,38,16.90
2015,07,04,02,39,17.00
2015,07,04,02,40,17.00
2015,07,04,02,41,17.00
2015,07,04,02,42,17.00
2015,07,04,02,43,17.00
2015,07,04,02,44,16.90
2015,07,04,02,45,17.00
2015,07,04,02,46,17.00
2015,07,04,02,47,17.00
2015,07,04,02,48,17.00
2015,07,04,02,49,17.10
2015,07,04,02,50,17.20
2015,07,04,02,51,17.20
2015,07,04,02,52,17.30
2015,07,04,02,53,17.30
2015,07,04,02,54,17.30
2015,07,04,02,55,17.20
2015,07,04,02,56,17.20
2015,07,04,02,57,17.10
2015,07,04,02,58,17.10
2015,07,04,02,59,17.00
2015,07,04,03,00,16.90
2015,07,04,03,01,16.90
2015,07,04,03,02,16.90
2015,07,04,03,03,16.90
2015,07,04,03,04,16.80
2015,07,04,03,05,16.80
2015,07,04,03,06,16.80
2015,07,04,03,07,16.80
2015,07,04,03,08,16.70
2015,07,04,03,09,16.70
2015,07,04,03,10,16.70
2015,07,04,03,11,16.70
2015,07,04,03,12,16.80
2015,07,04,03,13,16.90
2015,07,04,03,14,17.10
2015,07,04,03,15,17.20
2015,07,04,03,16,17.40
2015,07,04,03,17,17.50
2015,07,04,03,18,17.70
2015,07,04,03,19,17.90
2015,07,04,03,20,18.10
2015,07,04,03,21,18.30
2015,07,04,03,22,18.40
2015,07,04,03,23,18.50
2015,07,04,03,24,18.60
2015,07,04,03,25,18.70
2015,07,04,03,26,18.80
2015,07,04,03,27,18.80
2015,07,04,03,28,18.90
2015,07,04,03,29,18.90
2015,07,04,03,30,19.00
2015,07,04,03,31,19.00
2015,07,04,03,32,19.00
2015,07,04,03,33,19.10
2015,07,04,03,34,19.10
2015,07,04,03,35,19.10
2015,07,04,03,36,19.20
2015,07,04,03,37,19.20
2015,07,04,03,38,19.30
2015,07,04,03,39,19.30
2015,07,04,03,40,19.30
2015,07,04,03,41,19.30
2015,07,04,03,42,19.30
2015,07,04,03,43,19.30
2015,07,04,03,44,19.30
2015,07,04,03,45,19.30
2015,07,04,03,46,19.30
2015,07,04,03,47,19.30
2015,07,04,03,48,19.20
2015,07,04,03,49,19.10
2015,07,04,03,50,19.00
2015,07,04,03,51,18.90
2015,07,04,03,52,18.80
2015,07,04,03,53,18.60
2015,07,04,03,54,18.40
2015,07,04,03,55,18.30
2015,07,04,03,56,18.20
2015,07,04,03,57,18.20
2015,07,04,03,58,18.10
2015,07,04,03,59,18.10
2015,07,04,04,00,18.10
2015,07,04,04,01,18.10
2015,07,04,04,02,18.10
2015,07,04,04,03,18.10
2015,07,04,04,04,18.10
2015,07,04,04,05,18.20
2015,07,04,04,06,18.20
2015,07,04,04,07,18.30
2015,07,04,04,08,18.40
2015,07,04,04,09,18.60
2015,07,04,04,10,18.70
2015,07,04,04,11,18.80
2015,07,04,04,12,18.90
2015,07,04,04,13,18.90
2015,07,04,04,14,18.90
2015,07,04,04,15,19.00
2015,07,04,04,16,19.00
2015,07,04,04,17,18.90
2015,07,04,04,18,18.90
2015,07,04,04,19,18.90
2015,07,04,04,20,18.90
2015,07,04,04,21,18.90
2015,07,04,04,22,18.90
2015,07,04,04,23,18.80
2015,07,04,04,24,18.80
2015,07,04,04,25,18.80
2015,07,04,04,26,18.80
2015,07,04,04,27,18.80
2015,07,04,04,28,18.80
2015,07,04,04,29,18.80
2015,07,04,04,30,18.80
2015,07,04,04,31,18.80
2015,07,04,04,32,18.80
2015,07,04,04,33,18.80
2015,07,04,04,34,18.80
2015,07,04,04,35,18.80
2015,07,04,04,36,18.80
2015,07,04,04,37,18.80
2015,07,04,04,38,18.80
2015,07,04,04,39,18.80
2015,07,04,04,40,18.80
2015,07,04,04,41,18.70
2015,07,04,04,42,18.70
2015,07,04,04,43,18.70
2015,07,04,04,44,18.70
2015,07,04,04,45,18.70
2015,07,04,04,46,18.60
2015,07,04,04,47,18.60
2015,07,04,04,48,18.50
2015,07,04,04,49,18.50
2015,07,04,04,50,18.40
2015,07,04,04,51,18.40
2015,07,04,04,52,18.40
2015,07,04,04,53,18.40
2015,07,04,04,54,18.30
2015,07,04,04,55,18.30
2015,07,04,04,56,18.20
2015,07,04,04,57,18.20
2015,07,04,04,58,18.20
2015,07,04,04,59,18.10
2015,07,04,05,00,18.20
2015,07,04,05,01,18.20
2015,07,04,05,02,18.20
2015,07,04,05,03,18.30
2015,07,04,05,04,18.20
2015,07,04,05,05,18.20
2015,07,04,05,06,18.30
2015,07,04,05,07,18.50
2015,07,04,05,08,18.50
2015,07,04,05,09,18.60
2015,07,04,05,10,18.60
2015,07,04,05,11,18.60
2015,07,04,05,12,18.60
2015,07,04,05,13,18.60
2015,07,04,05,14,18.60
2015,07,04,05,15,18.60
2015,07,04,05,16,18.60
2015,07,04,05,17,18.60
2015,07,04,05,18,18.60
2015,07,04,05,19,18.60
2015,07,04,05,20,18.60
2015,07,04,05,21,18.60
2015,07,04,05,22,18.60
2015,07,04,05,23,18.60
2015,07,04,05,24,18.70
2015,07,04,05,25,18.70
2015,07,04,05,26,18.70
2015,07,04,05,27,18.80
2015,07,04,05,28,18.80
2015,07,04,05,29,18.90
2015,07,04,05,30,18.90
2015,07,04,05,31,18.90
2015,07,04,05,32,19.00
2015,07,04,05,33,19.00
2015,07,04,05,34,19.10
2015,07,04,05,35,19.10
2015,07,04,05,36,19.10
2015,07,04,05,37,19.10
2015,07,04,05,38,19.00
2015,07,04,05,39,19.00
2015,07,04,05,40,19.00
2015,07,04,05,41,19.00
2015,07,04,05,42,19.00
2015,07,04,05,43,19.00
2015,07,04,05,44,19.00
2015,07,04,05,45,19.10
2015,07,04,05,46,19.10
2015,07,04,05,47,19.10
2015,07,04,05,48,19.10
2015,07,04,05,49,19.10
2015,07,04,05,50,19.10
2015,07,04,05,51,19.20
2015,07,04,05,52,19.20
2015,07,04,05,53,19.30
2015,07,04,05,54,19.30
2015,07,04,05,55,19.30
2015,07,04,05,56,19.40
2015,07,04,05,57,19.40
2015,07,04,05,58,19.50
2015,07,04,05,59,19.50
2015,07,04,06,00,19.60
2015,07,04,06,01,19.60
2015,07,04,06,02,19.70
2015,07,04,06,03,19.70
2015,07,04,06,04,19.70
2015,07,04,06,05,19.70
2015,07,04,06,06,19.70
2015,07,04,06,07,19.70
2015,07,04,06,08,19.70
2015,07,04,06,09,19.70
2015,07,04,06,10,19.60
2015,07,04,06,11,19.60
2015,07,04,06,12,19.60
2015,07,04,06,13,19.60
2015,07,04,06,14,19.60
2015,07,04,06,15,19.60
2015,07,04,06,16,19.60
2015,07,04,06,17,19.60
2015,07,04,06,18,19.60
2015,07,04,06,19,19.60
2015,07,04,06,20,19.60
2015,07,04,06,21,19.60
2015,07,04,06,22,19.60
2015,07,04,06,23,19.60
2015,07,04,06,24,19.70
2015,07,04,06,25,19.70
2015,07,04,06,26,19.80
2015,07,04,06,27,19.80
2015,07,04,06,28,19.80
2015,07,04,06,29,19.80
2015,07,04,06,30,19.80
2015,07,04,06,31,19.80
2015,07,04,06,32,19.90
2015,07,04,06,33,19.90
2015,07,04,06,34,19.90
2015,07,04,06,35,19.90
2015,07,04,06,36,19.90
2015,07,04,06,37,19.90
2015,07,04,06,38,19.90
2015,07,04,06,39,19.90
2015,07,04,06,40,19.90
2015,07,04,06,41,20.00
2015,07,04,06,42,20.00
2015,07,04,06,43,20.00
2015,07,04,06,44,20.00
2015,07,04,06,45,20.10
2015,07,04,06,46,20.10
2015,07,04,06,47,20.10
2015,07,04,06,48,20.10
2015,07,04,06,49,20.20
2015,07,04,06,50,20.20
2015,07,04,06,51,20.20
2015,07,04,06,52,20.20
2015,07,04,06,53,20.20
2015,07,04,06,54,20.20
2015,07,04,06,55,20.30
2015,07,04,06,56,20.30
2015,07,04,06,57,20.30
2015,07,04,06,58,20.30
2015,07,04,06,59,20.40
2015,07,04,07,00,20.40
2015,07,04,07,01,20.40
2015,07,04,07,02,20.40
2015,07,04,07,03,20.40
2015,07,04,07,04,20.50
2015,07,04,07,05,20.50
2015,07,04,07,06,20.60
2015,07,04,07,07,20.60
2015,07,04,07,08,20.60
2015,07,04,07,09,20.60
2015,07,04,07,10,20.60
2015,07,04,07,11,20.60
2015,07,04,07,12,20.70
2015,07,04,07,13,20.70
2015,07,04,07,14,20.70
2015,07,04,07,15,20.70
2015,07,04,07,16,20.70
2015,07,04,07,17,20.80
2015,07,04,07,18,20.80
2015,07,04,07,19,20.80
2015,07,04,07,20,20.80
2015,07,04,07,21,20.80
2015,07,04,07,22,20.90
2015,07,04,07,23,20.90
2015,07,04,07,24,20.90
2015,07,04,07,25,20.90
2015,07,04,07,26,21.00
2015,07,04,07,27,21.10
2015,07,04,07,28,21.10
2015,07,04,07,29,21.20
2015,07,04,07,30,21.30
2015,07,04,07,31,21.30
2015,07,04,07,32,21.30
2015,07,04,07,33,21.40
2015,07,04,07,34,21.40
2015,07,04,07,35,21.40
2015,07,04,07,36,21.40
2015,07,04,07,37,21.50
2015,07,04,07,38,21.50
2015,07,04,07,39,21.50
2015,07,04,07,40,21.50
2015,07,04,07,41,21.50
2015,07,04,07,42,21.60
2015,07,04,07,43,21.60
2015,07,04,07,44,21.70
2015,07,04,07,45,21.70
2015,07,04,07,46,21.70
2015,07,04,07,47,21.80
2015,07,04,07,48,21.80
2015,07,04,07,49,21.80
2015,07,04,07,50,21.80
2015,07,04,07,51,21.80
2015,07,04,07,52,21.80
2015,07,04,07,53,21.80
2015,07,04,07,54,21.80
2015,07,04,07,55,21.80
2015,07,04,07,56,21.80
2015,07,04,07,57,21.80
2015,07,04,07,58,21.80
2015,07,04,07,59,21.80
2015,07,04,08,00,21.90
2015,07,04,08,01,21.90
2015,07,04,08,02,21.90
2015,07,04,08,03,21.90
2015,07,04,08,04,21.90
2015,07,04,08,05,21.90
2015,07,04,08,06,22.00
2015,07,04,08,07,22.00
2015,07,04,08,08,22.10
2015,07,04,08,09,22.10
2015,07,04,08,10,22.10
2015,07,04,08,11,22.10
2015,07,04,08,12,22.10
2015,07,04,08,13,22.10
2015,07,04,08,14,22.10
2015,07,04,08,15,22.00
2015,07,04,08,16,21.90
2015,07,04,08,17,21.80
2015,07,04,08,18,21.70
2015,07,04,08,19,21.60
2015,07,04,08,20,21.50
2015,07,04,08,21,21.40
2015,07,04,08,22,21.30
2015,07,04,08,23,21.30
2015,07,04,08,24,21.20
2015,07,04,08,25,21.20
2015,07,04,08,26,21.20
2015,07,04,08,27,21.20
2015,07,04,08,28,21.10
2015,07,04,08,29,21.10
2015,07,04,08,30,21.10
2015,07,04,08,31,21.10
2015,07,04,08,32,21.10
2015,07,04,08,33,21.10
2015,07,04,08,34,21.10
2015,07,04,08,35,21.10
2015,07,04,08,36,21.10
2015,07,04,08,37,21.00
2015,07,04,08,38,21.10
2015,07,04,08,39,21.10
2015,07,04,08,40,21.10
2015,07,04,08,41,21.20
2015,07,04,08,42,21.20
2015,07,04,08,43,21.20
2015,07,04,08,44,21.20
2015,07,04,08,45,21.30
2015,07,04,08,46,21.30
2015,07,04,08,47,21.30
2015,07,04,08,48,21.30
2015,07,04,08,49,21.40
2015,07,04,08,50,21.50
2015,07,04,08,51,21.50
2015,07,04,08,52,21.60
2015,07,04,08,53,21.60
2015,07,04,08,54,21.60
2015,07,04,08,55,21.60
2015,07,04,08,56,21.60
2015,07,04,08,57,21.60
2015,07,04,08,58,21.60
2015,07,04,08,59,21.70
2015,07,04,09,00,21.70
2015,07,04,09,01,21.70
2015,07,04,09,02,21.80
2015,07,04,09,03,21.80
2015,07,04,09,04,21.80
2015,07,04,09,05,21.80
2015,07,04,09,06,21.80
2015,07,04,09,07,21.80
2015,07,04,09,08,21.90
2015,07,04,09,09,21.90
2015,07,04,09,10,21.90
2015,07,04,09,11,22.00
2015,07,04,09,12,22.00
2015,07,04,09,13,22.00
2015,07,04,09,14,22.10
2015,07,04,09,15,22.10
2015,07,04,09,16,22.20
2015,07,04,09,17,22.20
2015,07,04,09,18,22.30
2015,07,04,09,19,22.30
2015,07,04,09,20,22.40
2015,07,04,09,21,22.40
2015,07,04,09,22,22.30
2015,07,04,09,23,22.30
2015,07,04,09,24,22.30
2015,07,04,09,25,22.40
2015,07,04,09,26,22.40
2015,07,04,09,27,22.40
2015,07,04,09,28,22.50
2015,07,04,09,29,22.50
2015,07,04,09,30,22.50
2015,07,04,09,31,22.50
2015,07,04,09,32,22.50
2015,07,04,09,33,22.50
2015,07,04,09,34,22.50
2015,07,04,09,35,22.50
2015,07,04,09,36,22.50
2015,07,04,09,37,22.50
2015,07,04,09,38,22.50
2015,07,04,09,39,22.50
2015,07,04,09,40,22.60
2015,07,04,09,41,22.60
2015,07,04,09,42,22.60
2015,07,04,09,43,22.60
2015,07,04,09,44,22.70
2015,07,04,09,45,22.70
2015,07,04,09,46,22.70
2015,07,04,09,47,22.80
2015,07,04,09,48,22.80
2015,07,04,09,49,22.80
2015,07,04,09,50,22.80
2015,07,04,09,51,22.80
2015,07,04,09,52,22.80
2015,07,04,09,53,22.80
2015,07,04,09,54,22.80
2015,07,04,09,55,22.80
2015,07,04,09,56,22.70
2015,07,04,09,57,22.70
2015,07,04,09,58,22.70
2015,07,04,09,59,22.70
2015,07,04,10,00,22.80
2015,07,04,10,01,22.80
2015,07,04,10,02,22.80
2015,07,04,10,03,22.90
2015,07,04,10,04,22.90
2015,07,04,10,05,22.90
2015,07,04,10,06,22.80
2015,07,04,10,07,22.80
2015,07,04,10,08,22.80
2015,07,04,10,09,22.80
2015,07,04,10,10,22.80
2015,07,04,10,11,22.80
2015,07,04,10,12,22.80
2015,07,04,10,13,22.90
2015,07,04,10,14,23.00
2015,07,04,10,15,23.20
2015,07,04,10,16,23.30
2015,07,04,10,17,23.40
2015,07,04,10,18,23.50
2015,07,04,10,19,23.60
2015,07,04,10,20,23.70
2015,07,04,10,21,23.80
2015,07,04,10,22,23.90
2015,07,04,10,23,23.90
2015,07,04,10,24,23.90
2015,07,04,10,25,23.90
2015,07,04,10,26,23.90
2015,07,04,10,27,23.90
2015,07,04,10,28,24.00
2015,07,04,10,29,24.00
2015,07,04,10,30,24.10
2015,07,04,10,31,24.10
2015,07,04,10,32,24.20
2015,07,04,10,33,24.20
2015,07,04,10,34,24.20
2015,07,04,10,35,24.20
2015,07,04,10,36,24.10
2015,07,04,10,37,24.10
2015,07,04,10,38,24.10
2015,07,04,10,39,23.90
2015,07,04,10,40,23.80
2015,07,04,10,41,23.80
2015,07,04,10,42,23.70
2015,07,04,10,43,23.60
2015,07,04,10,44,23.60
2015,07,04,10,45,23.60
2015,07,04,10,46,23.60
2015,07,04,10,47,23.60
2015,07,04,10,48,23.60
2015,07,04,10,49,23.70
2015,07,04,10,50,23.70
2015,07,04,10,51,23.70
2015,07,04,10,52,23.70
2015,07,04,10,53,23.70
2015,07,04,10,54,23.70
2015,07,04,10,55,23.70
2015,07,04,10,56,23.60
2015,07,04,10,57,23.60
2015,07,04,10,58,23.70
2015,07,04,10,59,23.80
2015,07,04,11,00,23.90
2015,07,04,11,01,24.00
2015,07,04,11,02,24.00
2015,07,04,11,03,24.00
2015,07,04,11,04,23.90
2015,07,04,11,05,23.90
2015,07,04,11,06,23.90
2015,07,04,11,07,24.00
2015,07,04,11,08,24.00
2015,07,04,11,09,24.10
2015,07,04,11,10,24.20
2015,07,04,11,11,24.30
2015,07,04,11,12,24.30
2015,07,04,11,13,24.30
2015,07,04,11,14,24.20
2015,07,04,11,15,24.20
2015,07,04,11,16,24.30
2015,07,04,11,17,24.30
2015,07,04,11,18,24.20
2015,07,04,11,19,24.20
2015,07,04,11,20,24.20
2015,07,04,11,21,24.30
2015,07,04,11,22,24.40
2015,07,04,11,23,24.40
2015,07,04,11,24,24.50
2015,07,04,11,25,24.50
2015,07,04,11,26,24.60
2015,07,04,11,27,24.60
2015,07,04,11,28,24.60
2015,07,04,11,29,24.60
2015,07,04,11,30,24.60
2015,07,04,11,31,24.60
2015,07,04,11,32,24.60
2015,07,04,11,33,24.60
2015,07,04,11,34,24.60
2015,07,04,11,35,24.60
2015,07,04,11,36,24.60
2015,07,04,11,37,24.60
2015,07,04,11,38,24.60
2015,07,04,11,39,24.60
2015,07,04,11,40,24.50
2015,07,04,11,41,24.50
2015,07,04,11,42,24.60
2015,07,04,11,43,24.70
2015,07,04,11,44,24.80
2015,07,04,11,45,24.80
2015,07,04,11,46,25.00
2015,07,04,11,47,25.00
2015,07,04,11,48,25.10
2015,07,04,11,49,25.20
2015,07,04,11,50,25.20
2015,07,04,11,51,25.20
2015,07,04,11,52,25.10
2015,07,04,11,53,25.20
2015,07,04,11,54,25.20
2015,07,04,11,55,25.30
2015,07,04,11,56,25.30
2015,07,04,11,57,25.40
2015,07,04,11,58,25.40
2015,07,04,11,59,25.50
2015,07,04,12,00,25.50
2015,07,04,12,01,25.50
2015,07,04,12,02,25.60
2015,07,04,12,03,25.60
2015,07,04,12,04,25.60
2015,07,04,12,05,25.60
2015,07,04,12,06,25.60
2015,07,04,12,07,25.60
2015,07,04,12,08,25.60
2015,07,04,12,09,25.50
2015,07,04,12,10,25.50
2015,07,04,12,11,25.60
2015,07,04,12,12,25.60
2015,07,04,12,13,25.70
2015,07,04,12,14,25.80
2015,07,04,12,15,25.90
2015,07,04,12,16,25.90
2015,07,04,12,17,25.90
2015,07,04,12,18,25.90
2015,07,04,12,19,25.80
2015,07,04,12,20,25.80
2015,07,04,12,21,25.80
2015,07,04,12,22,25.90
2015,07,04,12,23,25.90
2015,07,04,12,24,25.90
2015,07,04,12,25,25.90
2015,07,04,12,26,25.90
2015,07,04,12,27,25.90
2015,07,04,12,28,26.00
2015,07,04,12,29,26.00
2015,07,04,12,30,26.10
2015,07,04,12,31,26.10
2015,07,04,12,32,26.10
2015,07,04,12,33,26.10
2015,07,04,12,34,26.00
2015,07,04,12,35,26.00
2015,07,04,12,36,26.10
2015,07,04,12,37,26.10
2015,07,04,12,38,26.20
2015,07,04,12,39,26.20
2015,07,04,12,40,26.20
2015,07,04,12,41,26.20
2015,07,04,12,42,26.20
2015,07,04,12,43,26.20
2015,07,04,12,44,26.20
2015,07,04,12,45,26.30
2015,07,04,12,46,26.30
2015,07,04,12,47,26.30
2015,07,04,12,48,26.20
2015,07,04,12,49,26.20
2015,07,04,12,50,26.10
2015,07,04,12,51,26.00
2015,07,04,12,52,26.10
2015,07,04,12,53,26.10
2015,07,04,12,54,26.10
2015,07,04,12,55,26.10
2015,07,04,12,56,26.10
2015,07,04,12,57,26.00
2015,07,04,12,58,26.00
2015,07,04,12,59,26.00
2015,07,04,13,00,26.10
2015,07,04,13,01,26.10
2015,07,04,13,02,26.10
2015,07,04,13,03,26.10
2015,07,04,13,04,26.10
2015,07,04,13,05,26.20
2015,07,04,13,06,26.20
2015,07,04,13,07,26.20
2015,07,04,13,08,26.20
2015,07,04,13,09,26.20
2015,07,04,13,10,26.30
2015,07,04,13,11,26.30
2015,07,04,13,12,26.30
2015,07,04,13,13,26.30
2015,07,04,13,14,26.30
2015,07,04,13,15,26.30
2015,07,04,13,16,26.40
2015,07,04,13,17,26.40
2015,07,04,13,18,26.50
2015,07,04,13,19,26.60
2015,07,04,13,20,26.60
2015,07,04,13,21,26.60
2015,07,04,13,22,26.70
2015,07,04,13,23,26.80
2015,07,04,13,24,26.90
2015,07,04,13,25,27.00
2015,07,04,13,26,27.00
2015,07,04,13,27,27.10
2015,07,04,13,28,27.10
2015,07,04,13,29,27.20
2015,07,04,13,30,27.20
2015,07,04,13,31,27.20
2015,07,04,13,32,27.20
2015,07,04,13,33,27.30
2015,07,04,13,34,27.40
2015,07,04,13,35,27.40
2015,07,04,13,36,27.30
2015,07,04,13,37,27.30
2015,07,04,13,38,27.30
2015,07,04,13,39,27.30
2015,07,04,13,40,27.30
2015,07,04,13,41,27.20
2015,07,04,13,42,27.00
2015,07,04,13,43,26.90
2015,07,04,13,44,26.80
2015,07,04,13,45,26.80
2015,07,04,13,46,26.80
2015,07,04,13,47,26.70
2015,07,04,13,48,26.80
2015,07,04,13,49,26.80
2015,07,04,13,50,26.70
2015,07,04,13,51,26.70
2015,07,04,13,52,26.80
2015,07,04,13,53,26.90
2015,07,04,13,54,27.00
2015,07,04,13,55,27.10
2015,07,04,13,56,27.20
2015,07,04,13,57,27.30
2015,07,04,13,58,27.30
2015,07,04,13,59,27.40
2015,07,04,14,00,27.40
2015,07,04,14,01,27.30
2015,07,04,14,02,27.20
2015,07,04,14,03,27.20
2015,07,04,14,04,27.10
2015,07,04,14,05,27.10
2015,07,04,14,06,27.10
2015,07,04,14,07,27.10
2015,07,04,14,08,27.10
2015,07,04,14,09,27.10
2015,07,04,14,10,27.10
2015,07,04,14,11,27.10
2015,07,04,14,12,27.00
2015,07,04,14,13,26.90
2015,07,04,14,14,26.80
2015,07,04,14,15,26.80
2015,07,04,14,16,26.80
2015,07,04,14,17,26.90
2015,07,04,14,18,27.00
2015,07,04,14,19,27.10
2015,07,04,14,20,27.20
2015,07,04,14,21,27.30
2015,07,04,14,22,27.40
2015,07,04,14,23,27.40
2015,07,04,14,24,27.40
2015,07,04,14,25,27.40
2015,07,04,14,26,27.30
2015,07,04,14,27,27.30
2015,07,04,14,28,27.30
2015,07,04,14,29,27.30
2015,07,04,14,30,27.30
2015,07,04,14,31,27.30
2015,07,04,14,32,27.30
2015,07,04,14,33,27.50
2015,07,04,14,34,27.60
2015,07,04,14,35,27.80
2015,07,04,14,36,27.90
2015,07,04,14,37,28.00
2015,07,04,14,38,28.00
2015,07,04,14,39,28.00
2015,07,04,14,40,28.00
2015,07,04,14,41,28.00
2015,07,04,14,42,28.10
2015,07,04,14,43,28.00
2015,07,04,14,44,27.90
2015,07,04,14,45,27.80
2015,07,04,14,46,27.80
2015,07,04,14,47,27.80
2015,07,04,14,48,27.90
2015,07,04,14,49,28.00
2015,07,04,14,50,28.00
2015,07,04,14,51,28.10
2015,07,04,14,52,28.10
2015,07,04,14,53,28.20
2015,07,04,14,54,28.20
2015,07,04,14,55,28.30
2015,07,04,14,56,28.30
2015,07,04,14,57,28.40
2015,07,04,14,58,28.50
2015,07,04,14,59,28.50
2015,07,04,15,00,28.50
2015,07,04,15,01,28.60
2015,07,04,15,02,28.70
2015,07,04,15,03,28.70
2015,07,04,15,04,28.70
2015,07,04,15,05,28.80
2015,07,04,15,06,28.80
2015,07,04,15,07,28.80
2015,07,04,15,08,28.80
2015,07,04,15,09,28.90
2015,07,04,15,10,29.00
2015,07,04,15,11,29.10
2015,07,04,15,12,29.20
2015,07,04,15,13,29.20
2015,07,04,15,14,29.10
2015,07,04,15,15,29.00
2015,07,04,15,16,29.00
2015,07,04,15,17,28.90
2015,07,04,15,18,28.90
2015,07,04,15,19,28.90
2015,07,04,15,20,28.80
2015,07,04,15,21,28.80
2015,07,04,15,22,28.90
2015,07,04,15,23,28.90
2015,07,04,15,24,28.90
2015,07,04,15,25,28.90
2015,07,04,15,26,28.80
2015,07,04,15,27,28.90
2015,07,04,15,28,29.00
2015,07,04,15,29,29.00
2015,07,04,15,30,29.10
2015,07,04,15,31,29.10
2015,07,04,15,32,29.10
2015,07,04,15,33,29.20
2015,07,04,15,34,29.30
2015,07,04,15,35,29.20
2015,07,04,15,36,29.20
2015,07,04,15,37,29.10
2015,07,04,15,38,29.10
2015,07,04,15,39,29.10
2015,07,04,15,40,29.00
2015,07,04,15,41,28.80
2015,07,04,15,42,28.70
2015,07,04,15,43,28.50
2015,07,04,15,44,28.30
2015,07,04,15,45,28.20
2015,07,04,15,46,28.10
2015,07,04,15,47,28.10
2015,07,04,15,48,28.10
2015,07,04,15,49,28.30
2015,07,04,15,50,28.40
2015,07,04,15,51,28.50
2015,07,04,15,52,28.50
2015,07,04,15,53,28.60
2015,07,04,15,54,28.70
2015,07,04,15,55,28.70
2015,07,04,15,56,28.80
2015,07,04,15,57,28.90
2015,07,04,15,58,29.00
2015,07,04,15,59,28.90
2015,07,04,16,00,28.90
2015,07,04,16,01,28.80
2015,07,04,16,02,28.70
2015,07,04,16,03,28.70
2015,07,04,16,04,28.70
2015,07,04,16,05,28.70
2015,07,04,16,06,28.60
2015,07,04,16,07,28.60
2015,07,04,16,08,28.60
2015,07,04,16,09,28.60
2015,07,04,16,10,28.60
2015,07,04,16,11,28.60
2015,07,04,16,12,28.60
2015,07,04,16,13,28.60
2015,07,04,16,14,28.70
2015,07,04,16,15,28.90
2015,07,04,16,16,29.00
2015,07,04,16,17,29.00
2015,07,04,16,18,29.10
2015,07,04,16,19,29.10
2015,07,04,16,20,29.10
2015,07,04,16,21,29.10
2015,07,04,16,22,29.20
2015,07,04,16,23,29.30
2015,07,04,16,24,29.50
2015,07,04,16,25,29.60
2015,07,04,16,26,29.60
2015,07,04,16,27,29.60
2015,07,04,16,28,29.60
2015,07,04,16,29,29.60
2015,07,04,16,30,29.60
2015,07,04,16,31,29.60
2015,07,04,16,32,29.70
2015,07,04,16,33,29.80
2015,07,04,16,34,29.80
2015,07,04,16,35,29.80
2015,07,04,16,36,29.90
2015,07,04,16,37,29.90
2015,07,04,16,38,29.90
2015,07,04,16,39,29.90
2015,07,04,16,40,30.00
2015,07,04,16,41,30.00
2015,07,04,16,42,30.00
2015,07,04,16,43,30.00
2015,07,04,16,44,29.90
2015,07,04,16,45,29.90
2015,07,04,16,46,30.00
2015,07,04,16,47,30.00
2015,07,04,16,48,30.00
2015,07,04,16,49,29.90
2015,07,04,16,50,29.90
2015,07,04,16,51,29.90
2015,07,04,16,52,29.80
2015,07,04,16,53,29.70
2015,07,04,16,54,29.80
2015,07,04,16,55,29.80
2015,07,04,16,56,29.80
2015,07,04,16,57,29.90
2015,07,04,16,58,30.00
2015,07,04,16,59,30.10
2015,07,04,17,00,30.20
2015,07,04,17,01,30.20
2015,07,04,17,02,30.20
2015,07,04,17,03,30.30
2015,07,04,17,04,30.20
2015,07,04,17,05,30.20
2015,07,04,17,06,30.20
2015,07,04,17,07,30.10
2015,07,04,17,08,30.10
2015,07,04,17,09,30.10
2015,07,04,17,10,30.00
2015,07,04,17,11,30.00
2015,07,04,17,12,29.90
2015,07,04,17,13,29.90
2015,07,04,17,14,29.90
2015,07,04,17,15,29.80
2015,07,04,17,16,29.80
2015,07,04,17,17,29.70
2015,07,04,17,18,29.70
2015,07,04,17,19,29.70